This is the latest recevied weather packets stored in our database for station/object KB9PVH-8. If no packets are shown the sender has not sent any weather packets the latest 10 day(s).
| Time | Temp. | Humidity | Pressure | Rain* | Wind** | Luminosity | Snow |
|---|---|---|---|---|---|---|---|
| 1788621104 | 23.33° C | - | - | 0 mm | 11.62 m/s, ° | - | - |
| 1788620264 | 22.78° C | - | - | 0 mm | 9.83 m/s, ° | - | - |
| 1788619427 | 22.78° C | - | - | 0 mm | 4.92 m/s, ° | - | - |
| 1788618584 | 22.78° C | - | - | 0 mm | 2.68 m/s, ° | - | - |
| 1788617744 | 23.33° C | - | - | 0 mm | 4.92 m/s, ° | - | - |
| 1788616904 | 23.33° C | - | - | 0 mm | 5.36 m/s, ° | - | - |
| 1788616064 | 22.22° C | - | - | 0 mm | 5.81 m/s, ° | - | - |
| 1788615224 | 21.67° C | - | - | 0 mm | 4.47 m/s, ° | - | - |
| 1788614384 | 21.67° C | - | - | 0 mm | 4.02 m/s, ° | - | - |
| 1788613544 | 21.11° C | - | - | 0 mm | 5.81 m/s, ° | - | - |
| 1788612704 | 21.11° C | - | - | 0 mm | 3.13 m/s, ° | - | - |
| 1788611864 | 21.11° C | - | - | 0 mm | 2.68 m/s, ° | - | - |
| 1788611024 | 21.11° C | - | - | 0 mm | 2.24 m/s, ° | - | - |
| 1788610184 | 21.11° C | - | - | 0 mm | 1.34 m/s, ° | - | - |
| 1788609344 | 21.11° C | - | - | 0 mm | 0.89 m/s, ° | - | - |
| 1788608504 | 20.56° C | - | - | 0 mm | 0 m/s | - | - |
| 1788607664 | 20.56° C | - | - | 0 mm | 0 m/s | - | - |
| 1788606824 | 20.56° C | - | - | 0 mm | 0 m/s | - | - |
| 1788605984 | 20.56° C | - | - | 0 mm | 0 m/s | - | - |
| 1788605144 | 20.56° C | - | - | 0 mm | 0 m/s | - | - |
| 1788604460 | 20.56° C | - | - | 0 mm | 0 m/s | - | - |
| 1788604304 | 20.56° C | - | - | 0 mm | 0 m/s | - | - |
| 1788603464 | 20° C | - | - | 0 mm | 0 m/s | - | - |
| 1788602594 | 20° C | - | - | 0 mm | 0 m/s | - | - |
| 1788602028 | 20° C | - | - | 0 mm | 0 m/s | - | - |
* Rain latest hour (hover to see other rain measurements)
** Current wind speed in m/s (hover to see current wind gust speed)